Location: Table Mountain
(47.2500°N, 120.5778°W)
Time: 23:12:36
(UTC-07:00)

N. Korean satellite - Pass Details

Date: 10 October 2017
Orbit: 459 x 517 km, 97.2° (Epoch: 23 October)

Event Time Altitude Azimuth Distance (km) Brightness Sun altitude
Rises 19:32:45 0° 187° (S) 2,558 10.3 -12.6°
Reaches altitude 10° 19:34:58 10° 197° (SSW) 1,671 9.5 -12.9°
Maximum altitude 19:38:14 33° 263° (W) 836 8.5 -13.5°
Drops below altitude 10° 19:41:30 10° 329° (NNW) 1,655 9.8 -14.1°
Sets 19:43:41 0° 339° (NNW) 2,529 10.6 -14.4°
